Main page
METAR-TAF:

METAR-TAF

Airports :

Fasa, Iran

latitude: 28-58N, longitude: 053-41E, elevation: 1383 m

Current weather observation

The report was made 28 minutes ago, at 20:00 UTC
Wind 4 kt from the West
Temperature 27°C
Humidity 16%
Pressure 1010 hPa
Visibility 10 km or more
no clouds below 1500 m and no cumulonimbus

METAR: OISF 252000Z 28004KT CAVOK 27/M01 Q1009 A2982

Time: 00:58 (20:28 UTC)


TAF: missing

Weather observations and forecasts of more than 4000 airports (METAR and TAF reports).

The available stations are represented by yellow and red dots on the map.

Hover mouse over dot to see the name of the station.

Then click to see weather observations and forecasts.

To change the map : click on the green buttons with a black cross to zoom in, on the green button with a dash to zoom out, or on the green arrows for adjacent maps.


METAR-TAF: